Weather Roundup
Issued by NWS Chicago, IL

Home | Current Version | Previous Version | Text Only | Print | Product List | Glossary Off
Versions: 1 2 3 4 5 6 7 8 9 10 11 12 13 14 15 16 17 18 19 20 21 22 23 24 25 26 27 28 29 30 31 32 33 34 35 36 37 38 39 40 41 42 43 44 45 46 47 48 49 50

000
NZUS59 KLOT 231304
HRRLOT

CHICAGO AREA WEATHER ROUNDUP
NATIONAL WEATHER SERVICE CHICAGO/ROMEOVILLE IL
800 AM CDT FRI JUN 23 2017

NOTE: "FAIR" INDICATES FEW OR NO CLOUDS BELOW 12,000 FEET WITH NO
SIGNIFICANT WEATHER AND/OR OBSTRUCTIONS TO VISIBILITY.

* THESE STATIONS ARE NOT UNDER NWS QUALITY CONTROL. THEY ALSO MAY NOT
  REPORT WEATHER SUCH AS PRECIPITATION OR FOG.

ILZ005-006-012>014-019>023-231400-
NORTHEAST ILLINOIS

CITY           SKY/WX    TMP DP  RH WIND       PRES   REMARKS
OHARE          CLOUDY    68  63  84 NE9       29.70R
MIDWAY         CLOUDY    69  67  93 NW8       29.70R
AURORA         CLOUDY    68  65  90 N9        29.71R
LANSING*       CLOUDY    68  66  93 SW7       29.70R
JOLIET*        CLOUDY    70  69  97 NW3       29.70S
WAUKEGAN       CLOUDY    67  65  93 CALM      29.69R
DUPAGE AIRPORT CLOUDY    67  66  97 N8        29.70R
WHEELING       CLOUDY    67  65  93 N5        29.72R
MORRIS*        CLOUDY    68  67  94 NW5       29.69S
LEWIS AIRPORT* CLOUDY    68  65  90 NW8       29.70R
NORTHERLY ISL    N/A     66  64  93 CALM        N/A
$$

WIZ051-052-058>065-066-070>072-231400-
SOUTHEAST WISCONSIN

CITY           SKY/WX    TMP DP  RH WIND       PRES   REMARKS
MILWAUKEE      CLOUDY    68  62  81 NW8       29.68R
KENOSHA*       CLOUDY    67  64  90 NW6       29.69R
RACINE*        CLOUDY    67  64  90 W7        29.70R
WAUKESHA       SUNNY     63  61  94 W8        29.74R
$$

INZ001>003-010>013-019-020-231400-
NORTHWEST INDIANA

CITY           SKY/WX    TMP DP  RH WIND       PRES   REMARKS
GARY*          LGT RAIN  68  66  94 CALM      29.68R
MICHIGAN CITY* NOT AVBL
RENSSELAER*    NOT AVBL
VALPARAISO     RAIN      68  66  93 SW9       29.69R FOG
$$

LMZ740>746-231400-
SOUTHERN LAKE MICHIGAN

STATION/POSITION TIME  SKY/WX   TEMP WIND        PRES    VSBY
                                AIR  DIR/SP/G
                 (UTC)          (F)  (DEG/KT/KT) (MB)    (MI)
HARRISON CRIB    1240            66  310/  7/  8   N/A
BURNHAM HARBOR   1300            66                N/A
CALUMET HARBOR   1230            65  340/  2/  4 1004.4F
BURNS HARBOR     1240            66  220/  6/  7 1005.4F
MICHIGAN CITY    1240            65  260/  5/  6   N/A
$$

ABBREVIATIONS USED IN REMARKS
   TC - TEMPERATURE IN CELSIUS
  WCI - WIND CHILL INDEX
   HX - HEAT INDEX
  VSB - VISIBILITY
$$




USA.gov is the U.S. government's official web portal to all federal, state and local government web resources and services.